Location: Rumah Tugang
(2.9000°N, 113.7833°E)
Time: 04:52:28
(UTC+00:00)

Daily predictions for brighter satellites

Satellite Brightness Start Highest point End
(mag) Time Altitude Azimuth Time Altitude Azimuth Time Altitude Azimuth
CZ-3C R/B 2.8 10:27:05 10° SSE 10:28:06 11° SE 10:29:23 10° ESE
Cosmos 2208 Rocket 4.5 10:24:31 10° S 10:29:27 41° ESE 10:34:26 10° NNE
ASTRO E2 2.6 10:26:10 10° NW 10:30:05 72° NNE 10:34:00 10° ESE
SMAP 3.6 10:26:59 10° S 10:31:36 66° WSW 10:36:12 10° NNW
SJ 16-02 1.4 10:30:11 10° NNW 10:34:34 89° WSW 10:38:57 10° S
Cosmos 1500 Rocket 3.5 10:33:44 10° N 10:38:05 66° E 10:42:25 10° SSE
PSLV R/B 3.7 10:35:46 10° S 10:39:31 89° WSW 10:43:11 10° NNW
Tiangong 3.5 10:39:46 10° SSE 10:41:01 12° SE 10:42:15 10° ESE
BLOCK DM-SL R/B 3.2 10:40:37 10° W 10:45:29 63° S 10:49:45 10° E
MOS 1-B 4.3 10:41:22 10° SSE 10:47:07 69° ENE 10:52:50 10° N
ARIANE 42L R/B 4.4 10:43:39 10° WSW 10:47:52 61° SSE 11:11:46 10° E
ARIANE 42L R/B 4.4 10:43:40 10° WSW 10:47:52 61° SSE 11:11:46 10° E
ARIANE 5 R/B 3.8 10:37:50 10° W 10:48:23 48° S 10:51:14 10° ESE
Cosmos 1805 Rocket 3.8 10:44:47 10° NNE 10:48:53 44° E 10:53:01 10° SSE
Cosmos 2026 Rocket 4.1 10:43:34 10° NNE 10:49:24 50° E 10:55:13 10° SSE
Cosmos 2195 Rocket 4.5 10:45:20 10° N 10:51:28 67° E 10:57:41 10° SSE
CZ-4B R/B 3.1 10:52:42 13° E 10:53:02 13° E 10:54:33 10° SE
H-2A R/B 2.4 10:50:26 10° NNE 10:54:46 48° ESE 10:59:04 10° S
deb Chang Zheng 4 3.6 10:52:35 10° SSE 10:56:47 57° ENE 11:00:58 10° N
Okean O Rocket 1.8 10:54:27 10° SSE 10:58:42 48° ENE 11:02:57 10° N
APEX 4.3 10:53:29 10° S 10:59:17 52° ESE 11:03:39 12° NNE
Skynet4D Del rocket 4.5 10:52:22 10° NW 11:00:29 64° NNE 11:07:48 10° ESE
Sich 1 3.2 10:56:39 10° NNE 11:00:47 47° E 11:04:58 10° SSE
GPS 2-17 Rocket1 4.2 10:56:35 10° W 11:00:53 41° SSW 11:05:06 10° SE
Meteosat 1 Rocket2 2.5 10:57:13 10° WSW 11:01:06 90° ESE 11:03:27 20° ENE
Meteor 2-21 4.4 10:56:41 10° N 11:02:35 57° E 11:08:30 10° SSE
ARIANE 3 DEB 3.3 11:02:50 10° WSW 11:05:21 39° SSE 11:08:13 16° ESE
SL-4 R/B 3.2 11:01:01 10° NW 11:05:42 54° SW 11:10:19 10° SSE
Meteor 1-25 Rocket 4.2 11:01:41 10° N 11:07:16 87° W 11:12:57 10° S
YAOGAN 1 3.5 11:04:17 10° SE 11:07:52 25° ENE 11:09:43 19° NE
Meteor 2-15 4.4 11:05:33 10° S 11:11:41 79° E 11:17:48 10° N
Palapa 6 Rocket 3.8 11:09:26 10° WNW 11:16:32 74° NNE 11:20:52 19° ESE
Ariane H10+ 4.1 10:31:04 10° W 11:20:39 79° S 11:24:38 24° E
CZ-4 R/B 1.9 11:17:14 10° SE 11:21:06 37° ENE 11:22:19 30° NE
ARIANE 5 DEB (SYLDA) 3.9 11:06:57 10° W 11:23:11 65° S 11:26:55 20° ESE
EXPRESS MD2 3.6 11:23:11 10° NW 11:26:39 83° NE 11:33:36 10° SE
NOSS 3-3 (A) 3.8 11:21:45 10° S 11:27:00 51° ESE 11:29:04 33° ENE
Meteor 1-10 Rocket 4.4 11:21:08 10° S 11:27:04 78° W 11:32:55 10° N
NOSS 3-3 (C) 3.8 11:21:51 10° S 11:27:05 50° ESE 11:29:07 33° ENE
USA 234 3.2 11:20:44 10° SE 11:27:09 58° NE 11:33:32 10° NNW
Feng Yun 1-1 Rocket 4.4 11:21:36 10° SSE 11:27:20 59° ENE 11:33:07 10° N
Spot 2 4.4 11:28:21 10° SSE 11:33:00 56° ENE 11:37:53 10° N
Cosmos 1697 Rocket 3.9 11:35:45 23° ESE 11:35:45 23° ESE 11:38:13 10° SE
Cosmos 1500 3.5 11:29:42 10° NNW 11:33:21 63° W 11:37:02 10° S
Cosmos 921 Rocket 3.9 11:30:37 10° SSW 11:34:38 45° W 11:38:10 13° N
ARIANE 5 R/B 3.5 11:33:44 10° SW 11:35:16 19° S 11:35:16 19° S
X-37B 2.8 11:34:10 10° W 11:36:04 16° NW 11:36:28 16° NW
Cosmos 1633 Rocket 3.1 11:35:45 50° ENE 11:36:07 52° E 11:40:25 10° SSE
Ariane H10-3 2.1 11:36:07 10° W 11:39:07 52° S 11:40:52 31° ESE
Cosmos 2228 Rocket 4.5 11:35:19 10° SSE 11:37:35 24° SE 11:37:35 24° SE
Cosmos 1937 Rocket 3.7 11:39:46 45° ENE 11:39:53 46° ENE 11:44:54 10° SSE
H-2A R/B 2.4 11:36:17 10° SSE 11:39:34 56° SE 11:39:34 56° SE
Cosmos 1656 3.8 11:34:37 10° NNW 11:40:12 77° WSW 11:45:53 10° S
Mugunghwa Rocket 4.3 11:33:15 10° WNW 11:41:29 83° NNE 11:46:01 27° ESE
Lacrosse 5 2.0 11:39:08 10° NW 11:44:12 73° WSW 11:49:15 10° SSE
IUS-15 SRM-1 3.8 11:46:27 10° WNW 11:56:36 70° SSW 11:57:04 62° SSE
Aureole 3 Rocket 4.0 11:53:45 10° SSW 11:55:32 29° SW 11:55:32 29° SW
